Temperature
2 3 3 3 4 5 5 5 5 6 7 8 8 8 8 9 9 9 10 11 12 13 14 14 14 15 15 15 15 15 15 14 14 14 14 13 12 12 11 11 11 11 10 10
2 3 4 4 4 5 5 6 6 6 7 8 8 8 8 8 8 8 9 10 11 12 12 13 14 14 14 14 14 14 14 14 14 13 13 12 12 12 11 11 11 10 10 10
1 2 3 3 4 5 5 6 6 6 7 7 7 7 7 8 8 8 8 9 10 11 12 13 13 14 14 14 14 14 14 13 13 13 12 12 12 11 11 11 10 10 10 10
1 1 1 4 5 6 6 6 6 6 7 7 7 7 8 8 7 7 8 8 9 10 11 12 12 13 13 13 13 13 13 13 13 12 12 11 11 11 11 11 10 10 10 10
0 1 1 4 5 5 5 5 5 5 6 6 7 7 7 7 7 7 8 8 9 10 11 11 12 12 12 12 12 12 12 12 12 12 12 11 11 11 11 10 10 10 9 9
0 1 2 4 5 5 5 4 4 5 5 5 5 5 6 7 7 7 7 8 9 10 10 11 11 11 12 12 12 12 12 12 12 12 11 11 11 11 10 10 10 9 9 9
0 1 2 3 4 5 4 3 4 4 4 4 4 5 5 6 6 6 7 7 8 9 10 10 11 11 11 11 11 11 11 11 11 11 11 11 11 10 10 10 9 9 9 8
0 0 2 4 4 4 3 4 4 4 4 4 5 5 5 5 6 6 6 7 8 8 9 10 10 10 10 11 11 11 11 11 11 11 11 10 10 10 10 9 9 9 8 8
1 2 3 4 4 4 5 4 5 5 5 5 5 5 5 5 5 6 6 6 7 8 8 9 9 10 10 10 10 10 11 11 11 10 10 10 10 10 9 9 9 8 8 8
1 2 2 3 4 4 4 4 5 5 5 5 5 5 5 5 5 5 6 6 7 7 8 8 9 9 10 10 10 10 10 10 10 10 10 10 9 9 9 9 8 8 8 8
0 1 2 3 4 4 4 4 4 4 4 4 4 4 5 5 5 5 5 6 6 7 7 8 8 9 9 9 9 10 10 10 10 10 10 9 9 9 9 9 9 9 9 8
1 2 1 2 3 3 3 3 3 3 4 4 4 4 4 5 5 5 5 5 6 6 7 7 8 8 9 9 9 9 9 9 9 9 9 9 9 8 8 8 8 8 8 8
2 2 2 2 2 2 2 3 3 3 3 3 4 4 4 4 5 5 5 5 6 6 7 7 7 8 8 9 9 9 9 9 9 9 9 9 9 8 7 7 7 7 7 7
2 1 1 1 2 2 2 2 2 3 3 3 3 4 4 4 4 4 5 5 6 6 7 7 7 8 8 8 8 9 9 9 9 9 9 9 9 8 8 7 7 6 6 6
1 1 1 1 1 1 2 2 2 2 2 3 3 3 3 3 3 4 5 5 6 6 6 7 7 7 8 8 8 8 8 8 8 8 8 8 8 8 7 7 7 6 5 5
0 0 0 0 0 1 1 1 1 1 2 2 2 3 3 3 3 4 4 5 5 6 6 6 7 7 7 7 7 8 8 8 8 8 8 8 8 7 7 6 6 6 6 5
-1 -1 -1 -1 -0 -0 -0 0 0 1 1 1 2 2 2 2 3 3 4 4 5 6 6 6 6 7 7 7 7 7 7 7 7 7 7 7 7 7 7 6 6 6 5 5
-2 -2 -2 -2 -2 -1 -1 -1 -1 -0 0 1 1 1 2 2 2 3 3 4 4 5 5 6 6 6 6 7 6 7 7 7 6 6 7 7 7 6 6 6 6 5 5 4
-2 -2 -2 -2 -2 -2 -2 -1 -1 -1 -0 -0 0 0 1 1 1 2 2 3 3 4 5 5 6 6 6 6 6 6 6 6 6 6 6 6 6 6 6 5 5 5 5 4
-2 -2 -2 -2 -2 -2 -2 -2 -2 -1 -1 -1 -1 -0 0 1 1 1 2 2 3 4 5 5 5 5 5 5 5 5 5 5 5 5 5 5 5 5 5 5 5 4 4 4
-3 -3 -3 -3 -3 -2 -2 -2 -2 -2 -2 -2 -1 -1 -1 0 0 1 1 2 3 3 4 4 5 5 5 5 5 5 5 5 5 5 5 5 5 5 4 4 4 4 4 3
-4 -4 -4 -4 -4 -3 -3 -3 -3 -3 -3 -2 -2 -2 -1 -0 0 0 1 2 2 3 3 4 4 4 4 4 4 4 4 4 5 5 5 5 5 4 4 4 4 3 3 3
-5 -5 -5 -5 -4 -4 -4 -4 -3 -3 -3 -2 -2 -2 -1 -1 -0 0 1 2 2 2 3 3 4 4 4 4 4 4 4 4 4 4 5 5 5 4 4 4 4 3 3 3
-5 -5 -5 -5 -5 -5 -5 -4 -4 -4 -3 -3 -2 -2 -1 -1 -1 0 1 1 2 2 2 3 3 3 3 4 4 4 4 4 4 4 4 4 4 4 4 4 3 3 3 2
-6 -6 -6 -6 -6 -6 -5 -5 -4 -4 -3 -3 -2 -2 -2 -1 -1 0 0 1 1 2 2 2 2 3 3 3 3 3 3 3 4 4 4 4 4 3 3 3 3 3 2 2
-7 -7 -7 -7 -6 -6 -6 -5 -5 -4 -4 -3 -3 -2 -2 -1 -1 -0 0 0 1 1 1 1 2 2 2 3 3 3 3 3 3 3 3 3 3 3 3 3 2 2 2 2
-7 -7 -7 -7 -7 -6 -6 -5 -5 -5 -4 -4 -3 -3 -2 -1 -1 -1 -0 0 0 0 1 1 1 1 2 2 2 2 3 3 3 3 3 3 3 3 3 2 2 2 1 1
Wind_Speed
11 13 11 12 14 12 14 13 11 11 13 14 13 12 11 9 8 7 5 4 2 3 4 6 7 8 9 10 11 12 14 14 14 14 14 14 14 14 13 13 13 13 12 11
9 11 12 16 16 15 15 15 14 14 16 12 10 8 8 7 6 6 6 5 4 3 3 5 7 8 9 10 11 12 13 13 12 12 13 14 14 14 13 13 12 12 12 12
6 6 8 11 12 14 12 10 10 13 13 9 10 10 8 6 6 6 6 6 5 5 5 6 7 8 10 10 10 11 12 12 13 13 14 14 14 14 14 14 13 12 12 12
4 3 7 7 4 8 12 12 9 9 9 8 9 9 6 5 6 7 7 6 6 5 5 4 5 6 8 9 10 11 12 12 13 14 13 14 15 15 14 12 13 12 12 12
3 5 8 8 5 3 6 6 3 6 8 8 9 7 6 7 7 8 7 6 6 5 4 4 6 7 9 9 10 11 12 13 14 14 14 14 15 15 13 12 11 11 11 12
4 4 6 6 6 5 2 4 3 3 5 7 7 5 7 10 10 9 8 7 6 4 2 4 5 7 9 10 11 11 12 12 13 14 15 15 15 14 12 12 12 11 10 10
8 7 8 7 6 2 1 5 5 3 3 4 3 5 9 11 9 7 7 7 5 2 2 3 5 9 10 10 11 10 9 10 12 13 13 14 13 12 13 12 13 11 11 9
6 7 9 4 0 2 5 4 4 4 5 5 6 8 9 10 9 8 7 7 5 3 1 2 5 8 10 10 9 9 10 11 12 12 12 13 14 13 14 14 14 12 11 9
8 9 5 3 5 5 4 4 5 5 7 7 7 9 9 9 8 7 6 6 5 3 1 1 3 6 9 8 9 10 11 11 12 12 12 13 15 15 14 13 12 11 10 10
7 9 8 7 6 6 6 6 7 7 8 7 8 9 9 9 8 7 6 6 5 3 2 2 2 4 6 8 10 12 12 11 11 13 13 13 12 12 13 13 12 12 11 11
9 9 8 8 7 7 8 8 9 9 8 8 9 10 9 9 8 7 6 6 4 4 4 4 3 4 5 8 11 12 12 11 11 12 13 12 10 9 11 10 13 15 13 12
11 9 7 8 8 9 10 11 11 10 10 9 9 10 10 9 8 7 7 6 5 5 4 4 4 5 5 8 12 13 11 11 10 11 11 11 11 8 8 9 13 13 14 14
14 13 12 13 13 12 12 12 11 11 11 12 10 9 9 9 8 8 7 7 6 6 6 5 5 6 6 8 11 12 12 12 11 11 12 12 12 12 11 10 13 15 17 18
11 10 12 12 12 12 11 11 11 12 12 11 10 9 9 9 9 9 9 8 7 6 6 6 6 6 7 8 9 10 11 12 12 11 12 12 12 12 12 13 12 8 12 18
11 10 12 12 12 12 11 9 10 11 11 11 9 9 9 10 11 10 9 8 6 6 6 6 6 6 6 8 9 10 11 10 10 10 10 11 11 11 11 12 12 11 10 12
9 9 10 11 12 11 10 9 10 11 11 10 10 10 9 10 11 10 8 7 7 8 8 7 7 7 7 8 10 9 9 13 13 12 12 12 12 12 12 13 13 13 12 12
8 9 9 10 10 10 10 9 10 11 11 11 11 10 9 8 9 8 7 7 8 8 8 8 8 7 8 9 10 9 9 12 16 13 12 13 13 13 13 13 13 12 10 12
6 8 8 9 10 11 11 11 11 11 11 11 11 9 9 9 9 8 7 5 4 5 6 7 7 8 8 10 10 9 10 11 11 12 12 12 12 12 12 12 13 13 11 12
6 7 8 9 10 11 11 12 12 11 11 10 10 10 9 9 9 8 6 5 6 7 6 6 9 9 9 11 11 10 11 12 11 11 11 16 14 12 12 12 13 12 13 12
8 8 10 10 11 11 12 12 11 11 11 9 9 10 9 9 7 7 6 6 7 6 6 7 8 8 9 11 12 10 12 13 13 13 12 12 13 13 12 13 13 13 12 11
9 10 10 11 11 11 11 11 11 12 11 9 9 10 10 9 7 6 5 6 5 5 7 9 7 7 8 11 13 11 12 13 13 14 14 13 13 13 13 13 13 12 12 11
9 10 11 11 12 12 11 10 11 12 12 10 9 9 8 8 7 6 6 6 5 6 6 6 6 9 12 14 10 11 12 13 13 12 13 13 13 14 13 13 13 12 11 11
10 10 12 12 12 13 12 11 10 11 11 11 10 9 9 8 6 6 5 4 5 7 6 5 9 14 17 12 10 11 13 13 13 12 12 13 13 13 13 13 12 12 12 11
11 11 12 12 11 11 12 11 10 9 10 10 9 8 7 6 5 4 4 6 8 7 5 8 14 16 15 9 10 11 12 12 12 12 12 12 12 12 12 12 12 11 11 12
11 11 11 11 10 10 10 10 9 9 8 7 7 6 5 5 5 4 4 6 8 8 5 10 15 15 11 9 11 11 11 11 12 13 12 12 12 12 12 12 12 12 11 11
10 10 10 10 10 9 9 8 8 7 6 5 4 3 2 2 3 4 4 6 7 8 7 7 9 11 9 10 11 11 11 12 13 12 12 12 13 13 12 12 13 12 11 11
10 9 8 8 8 7 7 7 7 6 5 5 4 3 2 2 3 4 5 5 6 6 6 7 7 8 9 10 10 10 10 10 11 11 12 11 12 11 12 13 11 11 11 11
Wind_Direction
257 264 265 264 265 256 239 234 240 257 270 283 297 306 312 317 322 322 320 315 254 206 190 183 181 180 180 179 177 176 176 179 182 180 175 173 172 174 173 173 174 173 172 173
270 265 264 269 261 249 247 243 247 264 273 283 297 311 318 322 321 318 316 308 287 249 208 191 188 183 176 176 175 173 175 177 171 167 169 170 170 168 167 167 166 165 169 169
271 282 288 262 243 234 233 230 234 253 265 301 317 315 307 312 316 314 307 299 280 249 221 210 195 184 179 174 168 169 172 169 167 166 168 168 165 164 166 165 160 162 163 164
267 294 249 254 265 241 242 244 240 257 278 293 299 300 289 309 318 312 308 300 290 265 234 215 192 174 164 159 163 166 166 166 166 165 164 163 163 165 163 159 160 159 159 158
237 255 272 284 277 256 244 259 288 281 297 310 312 314 306 327 324 307 296 291 288 272 231 195 177 165 157 159 161 164 169 170 168 165 162 162 164 163 156 153 152 151 154 152
226 244 251 270 299 295 239 264 318 323 330 342 353 324 306 324 321 319 320 322 311 297 220 179 175 162 161 164 167 174 175 171 165 162 162 163 161 155 149 148 146 143 144 149
227 241 263 276 302 1 181 270 296 296 304 325 331 286 295 307 310 314 317 320 328 306 220 196 176 167 169 171 179 174 163 160 158 159 158 155 149 147 145 141 139 139 137 139
210 229 251 277 284 197 242 274 276 279 278 286 292 298 304 309 309 318 328 326 327 323 287 200 172 172 175 179 171 155 153 155 156 154 151 149 146 144 144 143 141 140 136 133
210 228 251 245 231 248 248 261 274 274 274 272 281 292 299 307 308 308 311 314 313 302 280 219 179 177 181 176 156 153 154 156 155 151 150 150 150 148 148 148 148 150 148 147
251 258 267 274 273 274 275 275 276 277 277 273 277 285 292 299 300 299 298 303 308 297 254 232 202 189 183 167 158 157 158 158 156 154 152 151 151 153 156 157 155 155 155 153
254 267 284 275 268 275 286 287 289 291 281 271 275 283 285 288 286 284 286 289 287 275 247 228 203 189 174 165 159 158 159 158 158 156 152 152 150 156 159 165 166 163 164 161
253 254 255 272 277 283 288 289 289 290 290 285 273 273 278 280 278 276 273 273 275 272 251 225 200 190 179 171 163 161 161 161 161 156 152 149 142 125 114 131 142 145 151 153
251 265 267 270 274 274 275 279 281 281 280 283 279 270 270 275 273 270 266 260 259 255 244 221 204 194 186 176 169 168 168 166 161 159 156 154 151 148 138 120 124 136 145 149
254 263 269 269 272 274 273 275 280 280 278 275 276 274 272 275 273 267 261 255 250 244 234 216 204 201 189 177 170 169 166 163 161 161 159 157 155 152 150 148 144 136 143 147
258 252 258 270 275 278 279 281 282 281 281 281 278 275 271 273 273 269 262 254 244 232 222 209 203 203 185 173 168 167 164 162 159 155 153 151 148 145 144 144 142 139 134 143
269 268 268 274 279 283 284 283 281 282 282 281 281 279 271 269 271 271 262 241 224 222 214 204 205 198 181 171 166 165 163 160 158 154 152 151 149 148 148 148 147 149 152 150
278 280 284 291 291 290 286 283 282 284 286 284 282 283 281 278 277 271 262 244 228 225 215 202 199 186 178 174 167 164 160 159 155 153 157 156 154 154 154 153 154 153 153 157
269 273 278 284 288 290 291 290 287 284 282 282 285 284 279 274 271 269 263 249 231 230 223 203 188 179 178 174 166 162 161 161 160 159 156 155 153 153 152 152 152 148 147 152
299 294 289 286 284 284 286 288 287 285 282 281 278 274 272 271 269 268 260 236 219 225 225 193 182 179 176 172 163 159 158 156 155 154 152 153 150 150 151 151 151 151 151 151
302 298 296 292 287 282 283 285 286 284 282 278 276 273 271 269 265 262 252 243 233 221 196 183 176 174 170 167 159 158 159 158 156 154 152 154 153 153 153 152 151 151 152 153
302 302 300 296 294 290 285 287 286 284 283 276 270 268 268 267 260 250 243 251 247 200 185 181 178 173 168 165 159 159 159 158 157 156 156 155 153 153 153 152 152 153 154 152
298 297 296 295 294 292 289 285 281 281 281 276 269 264 261 260 254 249 243 237 220 190 184 180 174 172 170 163 161 158 157 156 155 155 156 156 155 155 155 154 154 153 153 152
293 292 293 292 292 292 291 288 282 279 276 272 268 261 254 252 242 234 242 225 193 187 181 179 175 170 166 161 157 155 155 155 155 155 155 154 154 154 154 152 152 152 152 152
296 295 295 294 292 290 288 288 284 279 274 272 266 258 250 249 250 240 222 199 190 181 176 173 171 168 161 156 152 153 154 153 151 150 149 148 148 148 149 149 149 149 151 150
296 296 297 298 294 289 286 288 288 284 278 274 268 259 248 237 232 219 192 182 176 167 163 169 167 161 156 149 151 151 151 151 149 148 148 148 148 148 148 148 149 150 151 152
294 294 291 288 285 285 286 286 284 282 280 279 278 268 252 225 194 187 174 166 162 158 157 157 157 152 149 148 147 146 145 147 147 145 146 146 145 145 146 147 146 149 149 149
293 292 292 292 289 286 285 284 280 278 273 266 269 264 231 181 159 158 153 150 149 146 144 143 141 143 143 143 142 141 141 140 140 141 143 143 144 144 146 145 146 145 146 147
Height
1416 1411 1409 1406 1402 1399 1398 1395 1394 1382 1377 1367 1364 1361 1356 1353 1350 1347 1345 1344 1344 1345 1347 1350 1354 1359 1363 1369 1375 1381 1386 1392 1398 1404 1411 1417 1423 1429 1435 1441 1446 1451 1456 1460
1413 1406 1403 1399 1393 1391 1389 1385 1383 1379 1373 1365 1362 1359 1357 1354 1351 1348 1345 1344 1344 1345 1346 1348 1351 1355 1360 1365 1370 1376 1382 1387 1393 1399 1406 1412 1418 1424 1431 1436 1442 1447 1451 1456
1412 1404 1401 1395 1383 1381 1379 1377 1377 1375 1369 1364 1362 1359 1357 1354 1352 1349 1347 1345 1344 1344 1345 1346 1349 1352 1356 1361 1366 1372 1378 1383 1389 1395 1401 1407 1414 1420 1426 1431 1437 1442 1447 1452
1413 1409 1406 1385 1376 1374 1372 1370 1371 1369 1365 1363 1361 1358 1355 1354 1352 1349 1347 1345 1343 1343 1343 1345 1347 1350 1354 1358 1363 1368 1374 1379 1385 1391 1397 1403 1409 1415 1421 1427 1432 1438 1443 1448
1413 1408 1396 1381 1374 1373 1372 1370 1369 1367 1364 1362 1359 1356 1353 1353 1352 1349 1346 1343 1342 1341 1341 1342 1345 1348 1351 1356 1360 1365 1370 1375 1381 1387 1393 1399 1405 1411 1417 1423 1429 1434 1439 1444
1409 1405 1393 1377 1370 1367 1370 1371 1368 1366 1364 1362 1359 1360 1356 1352 1350 1347 1345 1342 1340 1340 1340 1341 1343 1346 1349 1353 1357 1362 1366 1372 1377 1383 1389 1395 1401 1407 1414 1420 1426 1431 1436 1441
1405 1400 1387 1375 1370 1367 1375 1373 1367 1364 1363 1362 1362 1362 1358 1352 1349 1347 1344 1342 1339 1338 1338 1340 1342 1345 1348 1351 1355 1359 1364 1370 1375 1381 1386 1392 1398 1405 1411 1417 1423 1428 1433 1438
1398 1396 1386 1371 1370 1372 1371 1366 1364 1363 1361 1360 1358 1356 1353 1350 1347 1344 1341 1340 1338 1337 1337 1339 1341 1343 1346 1349 1353 1358 1363 1368 1373 1378 1384 1390 1396 1402 1408 1414 1419 1425 1430 1434
1385 1380 1370 1368 1367 1366 1365 1363 1361 1360 1358 1356 1354 1352 1349 1347 1344 1342 1340 1339 1338 1337 1337 1338 1340 1342 1344 1347 1352 1356 1361 1366 1371 1376 1382 1387 1393 1398 1404 1410 1416 1421 1426 1430
1378 1370 1367 1365 1363 1362 1362 1360 1358 1356 1355 1353 1351 1348 1346 1344 1342 1340 1339 1337 1336 1336 1336 1337 1338 1341 1343 1346 1350 1354 1358 1363 1368 1373 1379 1385 1390 1396 1401 1406 1411 1417 1421 1426
1372 1366 1364 1360 1360 1359 1358 1357 1355 1353 1351 1349 1346 1344 1342 1340 1338 1337 1336 1335 1335 1334 1334 1335 1337 1338 1341 1344 1347 1351 1355 1360 1365 1370 1375 1381 1387 1392 1398 1404 1408 1413 1418 1423
1365 1362 1362 1358 1357 1356 1354 1352 1350 1348 1346 1344 1343 1340 1338 1336 1334 1333 1332 1332 1332 1332 1332 1333 1334 1336 1339 1342 1345 1348 1352 1356 1361 1366 1372 1377 1383 1390 1397 1403 1408 1413 1418 1422
1358 1356 1355 1353 1351 1350 1348 1346 1344 1343 1341 1339 1337 1335 1333 1331 1330 1329 1328 1328 1328 1328 1329 1330 1331 1333 1336 1339 1342 1345 1348 1353 1358 1363 1368 1374 1379 1385 1391 1398 1405 1411 1416 1420
1352 1351 1348 1346 1345 1343 1342 1340 1338 1336 1334 1333 1331 1329 1328 1326 1324 1324 1323 1324 1324 1324 1325 1326 1327 1330 1333 1335 1338 1342 1346 1350 1354 1359 1365 1370 1376 1382 1387 1392 1398 1405 1412 1417
1345 1345 1343 1340 1339 1337 1336 1334 1332 1330 1328 1326 1325 1323 1322 1320 1318 1318 1318 1318 1319 1319 1320 1322 1324 1326 1329 1332 1335 1338 1342 1346 1351 1356 1362 1368 1373 1379 1385 1390 1396 1401 1407 1413
1339 1337 1336 1334 1332 1330 1329 1328 1327 1324 1322 1321 1319 1317 1316 1315 1313 1312 1312 1313 1314 1314 1316 1318 1319 1322 1325 1328 1331 1335 1339 1343 1348 1353 1358 1364 1370 1375 1381 1387 1392 1398 1403 1409
1334 1331 1330 1328 1326 1325 1323 1322 1321 1319 1317 1315 1313 1311 1310 1309 1307 1306 1306 1307 1309 1310 1311 1313 1315 1318 1321 1324 1327 1331 1335 1340 1345 1350 1355 1360 1366 1372 1377 1383 1388 1394 1401 1406
1330 1328 1326 1325 1323 1320 1318 1316 1315 1313 1311 1309 1307 1305 1304 1302 1301 1301 1301 1302 1303 1304 1306 1309 1311 1313 1316 1319 1323 1327 1331 1336 1341 1346 1351 1357 1363 1369 1375 1380 1386 1392 1398 1404
1325 1323 1321 1319 1318 1316 1313 1311 1309 1307 1304 1303 1301 1299 1298 1297 1297 1296 1296 1297 1297 1298 1300 1304 1307 1309 1312 1316 1319 1323 1327 1332 1337 1343 1349 1355 1361 1366 1372 1378 1384 1389 1395 1400
1320 1318 1316 1314 1312 1310 1307 1304 1302 1299 1298 1297 1295 1293 1291 1291 1291 1291 1291 1291 1291 1293 1296 1299 1302 1304 1308 1312 1316 1319 1324 1329 1334 1339 1345 1351 1357 1363 1369 1375 1381 1386 1392 1397
1316 1313 1310 1308 1305 1302 1300 1297 1295 1292 1291 1290 1288 1286 1285 1285 1285 1285 1285 1285 1286 1289 1292 1294 1297 1300 1304 1308 1312 1316 1320 1325 1331 1336 1342 1348 1354 1360 1366 1372 1378 1383 1389 1394
1311 1307 1304 1301 1298 1294 1292 1290 1288 1285 1283 1282 1280 1280 1279 1278 1279 1279 1279 1280 1282 1285 1287 1290 1293 1296 1300 1304 1308 1313 1317 1322 1328 1333 1339 1345 1350 1356 1363 1369 1375 1381 1386 1392
1304 1301 1298 1295 1291 1287 1284 1282 1280 1278 1276 1274 1273 1272 1272 1272 1273 1273 1273 1275 1278 1281 1283 1286 1289 1293 1297 1301 1305 1309 1314 1319 1325 1330 1336 1342 1348 1354 1360 1366 1372 1378 1383 1389
1298 1294 1291 1288 1284 1281 1277 1275 1273 1271 1269 1267 1267 1266 1267 1266 1267 1268 1270 1272 1274 1277 1279 1283 1286 1290 1294 1297 1302 1307 1312 1317 1322 1328 1334 1340 1347 1353 1359 1364 1370 1376 1381 1387
1291 1287 1284 1281 1277 1274 1271 1269 1266 1264 1262 1261 1260 1260 1261 1261 1262 1263 1266 1268 1270 1273 1276 1280 1283 1287 1291 1295 1299 1304 1309 1315 1321 1326 1332 1339 1345 1351 1357 1362 1368 1374 1379 1384
1285 1281 1278 1275 1272 1269 1266 1263 1260 1258 1257 1256 1255 1255 1256 1257 1258 1260 1262 1265 1267 1270 1274 1277 1280 1284 1288 1293 1298 1303 1308 1314 1319 1325 1331 1337 1343 1349 1355 1361 1366 1372 1377 1382
1278 1275 1272 1268 1266 1263 1261 1258 1256 1254 1253 1252 1251 1251 1252 1253 1255 1257 1259 1262 1265 1268 1271 1274 1278 1282 1287 1291 1296 1302 1307 1313 1318 1324 1330 1335 1341 1347 1353 1359 1365 1370 1375 1380